START_TIME,STEP,MOV.,M15,t_acc.,M20,t_acc.
1981-08-26 21:00:44.750 ,1,0,0.,24.0,0.,24.0
1981-08-26 21:01:08.750 ,2,1,0.,24.0,0.,24.0
1981-08-26 21:01:32.750 ,2,0,0.,24.0,0.,24.0
1981-08-26 21:02:44.750 ,0,0,0.,24.0,0.,24.0
1981-08-26 21:03:08.750 ,0,0,0.,24.0,0.,24.0
1981-08-26 21:03:32.750 ,5,1,0.,24.0,0.,24.0
1981-08-26 21:03:56.750 ,5,0,0.,24.0,0.,24.0
1981-08-26 21:04:20.750 ,6,1,0.,24.0,0.,24.0
1981-08-26 21:04:44.750 ,6,0,0.,24.0,0.,24.0
1981-08-26 21:05:08.750 ,7,1,0.,24.0,0.,24.0
1981-08-26 21:05:32.750 ,7,0,0.,24.0,0.,24.0
1981-08-26 21:05:56.750 ,7,1,0.,24.0,0.,24.0
1981-08-26 21:06:20.750 ,7,0,0.,24.0,0.,24.0
1981-08-26 21:06:44.750 ,6,1,0.,24.0,0.,24.0
1981-08-26 21:07:08.750 ,6,0,0.,24.0,0.,24.0
1981-08-26 21:07:32.750 ,5,1,0.,24.0,0.,24.0
1981-08-26 21:07:56.750 ,5,0,0.,24.0,0.,24.0
1981-08-26 21:09:08.750 ,0,0,0.,24.0,0.,24.0
1981-08-26 21:09:32.750 ,0,0,0.,24.0,0.,24.0
1981-08-26 21:09:56.750 ,2,1,0.,24.0,0.,24.0
1981-08-26 21:10:20.750 ,2,0,0.,24.0,0.,24.0
1981-08-26 21:10:44.750 ,1,1,0.,24.0,0.,24.0
1981-08-26 21:11:08.750 ,1,0,0.,24.0,0.,24.0
1981-08-26 21:11:32.750 ,0,1,0.,24.0,0.,24.0
1981-08-26 21:11:56.750 ,0,0,0.,24.0,0.,24.0
1981-08-26 21:12:20.750 ,0,1,0.,24.0,0.,24.0
1981-08-26 21:12:44.750 ,0,0,0.,24.0,0.,24.0
1981-08-26 21:13:08.750 ,1,1,0.,24.0,0.,24.0
1981-08-26 21:13:32.750 ,1,0,0.,24.0,0.,24.0
1981-08-26 21:13:56.750 ,2,1,0.,24.0,0.,24.0
1981-08-26 21:14:20.750 ,2,0,0.,24.0,0.,24.0
1981-08-26 21:14:44.750 ,3,1,0.,24.0,0.,24.0
1981-08-26 21:15:08.750 ,3,0,0.,24.0,0.,24.0
1981-08-26 21:15:32.750 ,4,1,0.,24.0,0.,24.0
1981-08-26 21:15:56.750 ,4,0,0.,24.0,0.,24.0
1981-08-26 21:16:20.750 ,5,1,0.,24.0,0.,24.0
1981-08-26 21:16:44.750 ,5,0,0.,24.0,0.,24.0
1981-08-26 21:17:08.750 ,6,1,0.,24.0,0.,24.0
1981-08-26 21:17:32.750 ,6,0,0.,24.0,0.,24.0
1981-08-26 21:17:56.750 ,7,1,0.,24.0,0.,24.0
1981-08-26 21:18:20.750 ,7,0,0.,24.0,0.,24.0
1981-08-26 21:18:44.750 ,7,1,0.,24.0,0.,24.0
1981-08-26 21:19:08.750 ,7,0,0.,24.0,0.,24.0
1981-08-26 21:19:32.750 ,6,1,0.,24.0,0.,24.0
1981-08-26 21:19:56.750 ,6,0,0.,24.0,0.,24.0
1981-08-26 21:20:20.750 ,5,1,0.,24.0,0.,24.0
1981-08-26 21:20:44.750 ,5,0,0.,24.0,0.,24.0
1981-08-26 21:21:08.750 ,4,1,0.,24.0,0.,24.0
1981-08-26 21:21:32.750 ,4,0,0.,24.0,0.,24.0
1981-08-26 21:21:56.750 ,3,1,0.,24.0,0.,24.0
1981-08-26 21:22:20.750 ,3,0,0.,24.0,0.,24.0
1981-08-26 21:22:44.750 ,2,1,0.,24.0,0.,24.0
1981-08-26 21:23:08.750 ,2,0,0.,24.0,0.,24.0
1981-08-26 21:23:32.750 ,1,1,0.,24.0,0.,24.0
1981-08-26 21:23:56.750 ,1,0,0.,24.0,0.,24.0
1981-08-26 21:24:20.750 ,0,1,0.,24.0,0.,24.0
1981-08-26 21:24:44.750 ,0,0,0.,24.0,0.,24.0
1981-08-26 21:25:08.750 ,0,1,0.,24.0,0.,24.0
1981-08-26 21:25:32.750 ,0,0,0.,24.0,0.,24.0
1981-08-26 21:25:56.750 ,1,1,0.,24.0,0.,24.0
1981-08-26 21:26:20.750 ,1,0,0.,24.0,0.,24.0
1981-08-26 21:26:44.750 ,2,1,0.,24.0,0.,24.0
1981-08-26 21:27:08.750 ,2,0,0.,24.0,0.,24.0
1981-08-26 21:27:32.750 ,3,1,0.,24.0,0.,24.0
1981-08-26 21:27:56.750 ,3,0,0.,24.0,0.,24.0
1981-08-26 21:28:20.750 ,4,1,0.,24.0,0.,24.0
1981-08-26 21:28:44.750 ,4,0,0.,24.0,0.,24.0
1981-08-26 21:29:08.750 ,5,1,0.,24.0,0.,24.0
1981-08-26 21:29:32.750 ,5,0,0.,24.0,0.,24.0
1981-08-26 21:29:56.750 ,6,1,0.,24.0,0.,24.0
1981-08-26 21:30:20.750 ,6,0,0.,24.0,0.,24.0
1981-08-26 21:30:44.750 ,7,1,0.,24.0,0.,24.0
1981-08-26 21:31:08.750 ,7,0,0.,24.0,0.,24.0
1981-08-26 21:31:32.750 ,7,1,0.,24.0,0.,24.0
1981-08-26 21:31:56.750 ,7,0,0.,24.0,0.,24.0
1981-08-26 21:32:20.750 ,6,1,0.,24.0,0.,24.0
1981-08-26 21:32:44.750 ,6,0,0.,24.0,0.,24.0
1981-08-26 21:33:08.750 ,5,1,0.,24.0,0.,24.0
1981-08-26 21:33:32.750 ,5,0,0.,24.0,0.,24.0
1981-08-26 21:33:56.750 ,4,1,0.,24.0,0.,24.0
1981-08-26 21:34:20.750 ,4,0,0.,24.0,0.,24.0
1981-08-26 21:34:44.750 ,3,1,0.,24.0,0.,24.0
1981-08-26 21:35:08.750 ,3,0,0.,24.0,0.,24.0
1981-08-26 21:35:32.750 ,2,1,0.,24.0,0.,24.0
1981-08-26 21:35:56.750 ,2,0,0.,24.0,0.,24.0
1981-08-26 21:36:20.750 ,1,1,0.,24.0,0.,24.0
1981-08-26 21:36:44.750 ,1,0,0.,24.0,0.,24.0
1981-08-26 21:37:08.750 ,0,1,0.,24.0,0.,24.0
1981-08-26 21:37:32.750 ,0,0,0.,24.0,0.,24.0
1981-08-26 21:37:56.750 ,0,1,0.,24.0,0.,24.0
1981-08-26 21:38:20.750 ,0,0,0.,24.0,0.,24.0
1981-08-26 21:38:44.750 ,1,1,0.,24.0,0.,24.0
1981-08-26 21:39:08.750 ,1,0,0.,24.0,0.,24.0
1981-08-26 21:39:32.750 ,2,1,0.,24.0,0.,24.0
1981-08-26 21:39:56.750 ,2,0,0.,24.0,0.,24.0
1981-08-26 21:40:20.750 ,3,1,0.,24.0,0.,24.0
1981-08-26 21:40:44.750 ,3,0,0.,24.0,0.,24.0
1981-08-26 21:41:08.750 ,4,1,0.,24.0,0.,24.0
1981-08-26 21:41:32.750 ,4,0,0.,24.0,0.,24.0
1981-08-26 21:41:56.750 ,5,1,0.,24.0,0.,24.0
1981-08-26 21:42:20.750 ,5,0,0.,24.0,0.,24.0
1981-08-26 21:42:44.750 ,6,1,0.,24.0,0.,24.0
1981-08-26 21:43:08.750 ,6,0,0.,24.0,0.,24.0
1981-08-26 21:43:32.750 ,7,1,0.,24.0,0.,24.0
1981-08-26 21:43:56.750 ,7,0,0.,24.0,0.,24.0
1981-08-26 21:45:08.750 ,0,0,0.,24.0,0.,24.0
1981-08-26 21:45:32.750 ,0,0,0.,24.0,0.,24.0
1981-08-26 21:45:56.750 ,5,1,0.,24.0,0.,24.0
1981-08-26 21:46:20.750 ,5,0,0.,24.0,0.,24.0
1981-08-26 21:46:44.750 ,4,1,0.,24.0,0.,24.0
1981-08-26 21:47:08.750 ,4,0,0.,24.0,0.,24.0
1981-08-26 21:47:32.750 ,3,1,0.,24.0,0.,24.0
1981-08-26 21:47:56.750 ,3,0,0.,24.0,0.,24.0
1981-08-26 21:48:20.750 ,2,1,0.,24.0,0.,24.0
1981-08-26 21:48:44.750 ,2,0,0.,24.0,0.,24.0
1981-08-26 21:49:08.750 ,1,1,0.,24.0,0.,24.0
1981-08-26 21:49:32.750 ,1,0,0.,24.0,0.,24.0
1981-08-26 21:49:56.750 ,0,1,0.,24.0,0.,24.0
1981-08-26 21:50:20.750 ,0,0,0.,24.0,0.,24.0
1981-08-26 21:50:44.750 ,0,1,0.,24.0,0.,24.0
1981-08-26 21:51:08.750 ,0,0,0.,24.0,0.,24.0
1981-08-26 21:51:32.750 ,1,1,0.,24.0,0.,24.0
1981-08-26 21:51:56.750 ,1,0,0.,24.0,0.,24.0
1981-08-26 21:52:20.750 ,2,1,0.,24.0,0.,24.0
1981-08-26 21:52:44.750 ,2,0,0.,24.0,0.,24.0
1981-08-26 21:53:08.750 ,3,1,0.,24.0,0.,24.0
1981-08-26 21:53:32.750 ,3,0,0.,24.0,0.,24.0
1981-08-26 21:53:56.750 ,4,1,0.,24.0,0.,24.0
1981-08-26 21:54:20.750 ,4,0,0.,24.0,0.,24.0
1981-08-26 21:54:44.750 ,5,1,0.,24.0,0.,24.0
1981-08-26 21:55:08.750 ,5,0,0.,24.0,0.,24.0
1981-08-26 21:56:20.750 ,0,0,0.,24.0,0.,24.0
1981-08-26 21:56:44.750 ,0,0,0.,24.0,0.,24.0
1981-08-26 21:57:08.740 ,0,0,,0,,0
1981-08-26 21:57:32.740 ,0,0,0.,24.0,0.,24.0
1981-08-26 21:57:56.740 ,6,1,0.,24.0,0.,24.0
1981-08-26 21:58:20.740 ,6,0,0.,24.0,0.,24.0
1981-08-26 21:58:44.740 ,5,1,0.,24.0,0.,24.0
1981-08-26 21:59:08.740 ,5,0,0.,24.0,0.,24.0
1981-08-26 21:59:32.740 ,4,1,0.,24.0,0.,24.0
1981-08-26 21:59:56.740 ,4,0,0.,24.0,0.,24.0
1981-08-26 22:00:20.740 ,3,1,0.,24.0,0.,24.0
1981-08-26 22:00:44.750 ,3,0,0.,24.0,0.,24.0
1981-08-26 22:01:08.750 ,2,1,0.,24.0,0.,24.0
1981-08-26 22:01:32.750 ,2,0,0.,24.0,0.,24.0
1981-08-26 22:01:56.750 ,1,1,0.,24.0,0.,24.0
1981-08-26 22:02:20.750 ,1,0,0.,24.0,0.,24.0
1981-08-26 22:02:44.750 ,0,1,0.,24.0,0.,24.0
1981-08-26 22:03:08.750 ,0,0,0.,24.0,0.,24.0
1981-08-26 22:03:32.750 ,0,1,0.,24.0,0.,24.0
1981-08-26 22:03:56.750 ,0,0,0.,24.0,0.,24.0
1981-08-26 22:04:20.750 ,1,1,0.,24.0,0.,24.0
1981-08-26 22:04:44.750 ,1,0,0.,24.0,0.,24.0
1981-08-26 22:05:08.740 ,2,1,0.,24.0,0.,24.0
1981-08-26 22:05:32.750 ,2,0,0.,24.0,0.,24.0
1981-08-26 22:05:56.750 ,3,1,0.,24.0,0.,24.0
1981-08-26 22:06:20.750 ,3,0,0.,24.0,0.,24.0
1981-08-26 22:06:44.750 ,4,1,0.,24.0,0.,24.0
1981-08-26 22:07:08.740 ,4,0,0.,24.0,0.,24.0
1981-08-26 22:07:32.750 ,5,1,0.,24.0,0.,24.0
1981-08-26 22:07:56.750 ,5,0,0.,24.0,0.,24.0
1981-08-26 22:08:20.750 ,6,1,0.,24.0,0.,24.0
1981-08-26 22:08:44.740 ,6,0,0.,24.0,0.,24.0
1981-08-26 22:09:08.740 ,7,1,0.,24.0,0.,24.0
1981-08-26 22:09:32.740 ,7,0,0.,24.0,0.,24.0
1981-08-26 22:09:56.740 ,7,1,0.,24.0,0.,24.0
1981-08-26 22:10:20.740 ,7,0,0.,24.0,0.,24.0
1981-08-26 22:10:44.740 ,6,1,0.,24.0,0.,24.0
1981-08-26 22:11:08.740 ,6,0,0.,24.0,0.,24.0
1981-08-26 22:11:32.740 ,5,1,0.,24.0,0.,24.0
1981-08-26 22:11:56.740 ,5,0,0.,24.0,0.,24.0
1981-08-26 22:12:20.740 ,4,1,0.,24.0,0.,24.0
1981-08-26 22:12:44.740 ,4,0,0.,24.0,0.,24.0
1981-08-26 22:13:08.740 ,3,1,0.,24.0,0.,24.0
1981-08-26 22:13:32.740 ,3,0,0.,24.0,0.,24.0
1981-08-26 22:13:56.740 ,2,1,0.,24.0,0.,24.0
1981-08-26 22:14:20.740 ,2,0,0.,24.0,0.,24.0
1981-08-26 22:14:44.740 ,1,1,0.,24.0,0.,24.0
1981-08-26 22:15:08.740 ,1,0,0.,24.0,0.,24.0
1981-08-26 22:15:32.740 ,0,1,0.,24.0,0.,24.0
1981-08-26 22:15:56.740 ,0,0,0.,24.0,0.,24.0
1981-08-26 22:16:20.740 ,0,1,0.,24.0,0.,24.0
1981-08-26 22:16:44.740 ,0,0,0.,24.0,0.,24.0
1981-08-26 22:17:08.740 ,1,1,0.,24.0,0.,24.0
1981-08-26 22:17:32.740 ,1,0,0.,24.0,0.,24.0
1981-08-26 22:17:56.740 ,2,1,0.,24.0,0.,24.0
1981-08-26 22:18:20.740 ,2,0,0.,24.0,0.,24.0
1981-08-26 22:18:44.740 ,3,1,0.,24.0,0.,24.0
1981-08-26 22:19:08.740 ,3,0,0.,24.0,0.,24.0
1981-08-26 22:19:32.740 ,4,1,0.,24.0,0.,24.0
1981-08-26 22:19:56.740 ,4,0,0.,24.0,0.,24.0
1981-08-26 22:20:20.740 ,5,1,0.,24.0,0.,24.0
1981-08-26 22:20:44.740 ,5,0,0.,24.0,0.,24.0
1981-08-26 22:21:08.740 ,6,1,0.,24.0,0.,24.0
1981-08-26 22:21:32.740 ,6,0,0.,24.0,0.,24.0
1981-08-26 22:21:56.740 ,7,1,0.,24.0,0.,24.0
1981-08-26 22:22:20.740 ,7,0,0.,24.0,0.,24.0
1981-08-26 22:22:44.740 ,7,1,0.,24.0,0.,24.0
1981-08-26 22:23:08.740 ,7,0,0.,24.0,0.,24.0
1981-08-26 22:24:20.740 ,0,0,0.,24.0,0.,24.0
1981-08-26 22:24:44.740 ,0,0,0.,24.0,0.,24.0
1981-08-26 22:25:08.740 ,4,1,0.,24.0,0.,24.0
1981-08-26 22:25:32.740 ,4,0,0.,24.0,0.,24.0
1981-08-26 22:25:56.740 ,3,1,0.,24.0,0.,24.0
1981-08-26 22:26:20.740 ,3,0,0.,24.0,0.,24.0
1981-08-26 22:26:44.740 ,2,1,0.,24.0,0.,24.0
1981-08-26 22:27:08.740 ,2,0,0.,24.0,0.,24.0
1981-08-26 22:27:32.740 ,1,1,0.,24.0,0.,24.0
1981-08-26 22:27:56.740 ,1,0,0.,24.0,0.,24.0
1981-08-26 22:28:20.740 ,0,1,0.,24.0,0.,24.0
1981-08-26 22:28:44.740 ,0,0,0.,24.0,0.,24.0
1981-08-26 22:29:08.740 ,0,1,0.,24.0,0.,24.0
1981-08-26 22:29:32.740 ,0,0,0.,24.0,0.,24.0
1981-08-26 22:29:56.740 ,1,1,0.,24.0,0.,24.0
1981-08-26 22:30:20.740 ,1,0,0.,24.0,0.,24.0
1981-08-26 22:30:44.740 ,2,1,0.,24.0,0.,24.0
1981-08-26 22:31:08.740 ,2,0,0.,24.0,0.,24.0
1981-08-26 22:31:32.740 ,3,1,0.,24.0,0.,24.0
1981-08-26 22:31:56.740 ,3,0,0.,24.0,0.,24.0
1981-08-26 22:32:20.740 ,4,1,0.,24.0,0.,24.0
1981-08-26 22:32:44.740 ,4,0,0.,24.0,0.,24.0
1981-08-26 22:33:08.740 ,5,1,0.,24.0,0.,24.0
1981-08-26 22:33:32.740 ,5,0,0.,24.0,0.,24.0
1981-08-26 22:33:56.740 ,6,1,0.,24.0,0.,24.0
1981-08-26 22:34:20.740 ,6,0,0.,24.0,0.,24.0
1981-08-26 22:34:44.740 ,7,1,0.,24.0,0.,24.0
1981-08-26 22:35:08.740 ,7,0,0.,24.0,0.,24.0
1981-08-26 22:35:32.740 ,7,1,0.,24.0,0.,24.0
1981-08-26 22:35:56.740 ,7,0,0.,24.0,0.,24.0
1981-08-26 22:36:20.740 ,6,1,0.,24.0,0.,24.0
1981-08-26 22:36:44.740 ,6,0,0.,24.0,0.,24.0
1981-08-26 22:37:08.740 ,5,1,0.,24.0,0.,24.0
1981-08-26 22:37:32.740 ,5,0,0.,24.0,0.,24.0
1981-08-26 22:37:56.740 ,4,1,0.,24.0,0.,24.0
1981-08-26 22:38:20.740 ,4,0,0.,24.0,0.,24.0
1981-08-26 22:38:44.740 ,3,1,0.,24.0,0.,24.0
1981-08-26 22:39:08.740 ,3,0,0.,24.0,0.,24.0
1981-08-26 22:39:32.740 ,2,1,0.,24.0,0.,24.0
1981-08-26 22:39:56.740 ,2,0,0.,24.0,0.,24.0
1981-08-26 22:40:20.740 ,1,1,0.,24.0,0.,24.0
1981-08-26 22:40:44.740 ,1,0,0.,24.0,0.,24.0
1981-08-26 22:41:08.740 ,0,1,0.,24.0,0.,24.0
1981-08-26 22:41:32.740 ,0,0,0.,24.0,0.,24.0
1981-08-26 22:41:56.740 ,0,1,0.,24.0,0.,24.0
1981-08-26 22:42:20.740 ,0,0,0.,24.0,0.,24.0
1981-08-26 22:42:44.740 ,1,1,0.,24.0,0.,24.0
1981-08-26 22:43:08.740 ,1,0,0.,24.0,0.,24.0
1981-08-26 22:43:32.740 ,2,1,0.,24.0,0.,24.0
1981-08-26 22:43:56.740 ,2,0,0.,24.0,0.,24.0
1981-08-26 22:44:20.740 ,3,1,0.,24.0,0.,24.0
1981-08-26 22:44:44.740 ,3,0,0.,24.0,0.,24.0
1981-08-26 22:45:08.740 ,4,1,0.,24.0,0.,24.0
1981-08-26 22:45:32.740 ,4,0,0.,24.0,0.,24.0
1981-08-26 22:45:56.740 ,5,1,0.,24.0,0.,24.0
1981-08-26 22:46:20.740 ,5,0,0.,24.0,0.,24.0
1981-08-26 22:46:44.740 ,6,1,0.,24.0,0.,24.0
1981-08-26 22:47:08.740 ,6,0,0.,24.0,0.,24.0
1981-08-26 22:47:32.740 ,7,1,0.,24.0,0.,24.0
1981-08-26 22:47:56.740 ,7,0,0.,24.0,0.,24.0
1981-08-26 22:48:20.740 ,7,1,0.,24.0,0.,24.0
1981-08-26 22:48:44.740 ,7,0,0.,24.0,0.,24.0
1981-08-26 22:49:08.740 ,6,1,0.,24.0,0.,24.0
1981-08-26 22:49:32.740 ,6,0,0.,24.0,0.,24.0
1981-08-26 22:49:56.740 ,5,1,0.,24.0,0.,24.0
1981-08-26 22:50:20.740 ,5,0,0.,24.0,0.,24.0
1981-08-26 22:50:44.740 ,4,1,0.,24.0,0.,24.0
1981-08-26 22:51:08.740 ,0,0,0.,24.0,0.,24.0
1981-08-26 22:55:05.740 ,0,0,0.,24.0,0.,24.0
1981-08-26 22:55:08.740 ,0,0,0.,24.0,0.,24.0
1981-08-26 22:55:32.740 ,1,1,0.,24.0,0.,24.0
1981-08-26 22:55:56.740 ,1,0,0.,24.0,0.,24.0
1981-08-26 22:56:20.740 ,2,1,0.,24.0,0.,24.0
1981-08-26 22:56:44.740 ,2,0,0.,24.0,0.,24.0
1981-08-26 22:57:08.740 ,3,1,0.,24.0,0.,24.0
1981-08-26 22:57:32.740 ,3,0,0.,24.0,0.,24.0
1981-08-26 22:57:56.740 ,4,1,0.,24.0,0.,24.0
1981-08-26 22:58:20.740 ,4,0,0.,24.0,0.,24.0
1981-08-26 22:58:44.740 ,5,1,0.,24.0,0.,24.0
1981-08-26 22:59:08.740 ,5,0,0.,24.0,0.,24.0
1981-08-26 22:59:32.740 ,6,1,0.,24.0,0.,24.0
1981-08-26 22:59:56.740 ,6,0,0.,24.0,0.,24.0
1981-08-26 23:00:20.740 ,7,1,0.,24.0,0.,24.0
1981-08-26 23:00:44.740 ,7,0,0.,24.0,0.,24.0
1981-08-26 23:01:08.740 ,7,1,0.,24.0,0.,24.0
1981-08-26 23:01:32.740 ,7,0,0.,24.0,0.,24.0
1981-08-26 23:01:56.740 ,6,1,0.,24.0,0.,24.0
1981-08-26 23:02:20.740 ,6,0,0.,24.0,0.,24.0
1981-08-26 23:02:44.740 ,5,1,0.,24.0,0.,24.0
1981-08-26 23:03:08.740 ,5,0,0.,24.0,0.,24.0
1981-08-26 23:03:32.740 ,4,1,0.,24.0,0.,24.0
1981-08-26 23:03:56.740 ,4,0,0.,24.0,0.,24.0
1981-08-26 23:04:20.740 ,3,1,0.,24.0,0.,24.0
1981-08-26 23:04:44.740 ,3,0,0.,24.0,0.,24.0
1981-08-26 23:05:08.740 ,2,1,0.,24.0,0.,24.0
1981-08-26 23:05:32.740 ,2,0,0.,24.0,0.,24.0
1981-08-26 23:05:56.740 ,1,1,0.,24.0,0.,24.0
1981-08-26 23:06:20.740 ,1,0,0.,24.0,0.,24.0
1981-08-26 23:06:44.740 ,0,1,0.,24.0,0.,24.0
1981-08-26 23:07:08.740 ,0,0,0.,24.0,0.,24.0
1981-08-26 23:07:32.740 ,0,1,0.,24.0,0.,24.0
1981-08-26 23:07:56.740 ,0,0,0.,24.0,0.,24.0
1981-08-26 23:08:20.740 ,1,1,0.,24.0,0.,24.0
1981-08-26 23:08:44.740 ,1,0,0.,24.0,0.,24.0
1981-08-26 23:09:08.740 ,2,1,0.,24.0,0.,24.0
1981-08-26 23:09:32.740 ,2,0,0.,24.0,0.,24.0
1981-08-26 23:09:56.740 ,3,1,0.,24.0,0.,24.0
1981-08-26 23:10:20.740 ,3,0,0.,24.0,0.,24.0
1981-08-26 23:10:44.740 ,4,1,0.,24.0,0.,24.0
1981-08-26 23:11:08.740 ,4,0,0.,24.0,0.,24.0
1981-08-26 23:11:32.740 ,5,1,0.,24.0,0.,24.0
1981-08-26 23:11:56.740 ,5,0,0.,24.0,0.,24.0
1981-08-26 23:12:20.740 ,6,1,0.,24.0,0.,24.0
1981-08-26 23:12:44.740 ,6,0,0.,24.0,0.,24.0
1981-08-26 23:13:08.740 ,7,1,0.,24.0,0.,24.0
1981-08-26 23:13:32.740 ,7,0,0.,24.0,0.,24.0
1981-08-26 23:14:44.740 ,0,0,0.,24.0,0.,24.0
1981-08-26 23:15:08.740 ,0,0,0.,24.0,0.,24.0
1981-08-26 23:15:32.740 ,5,1,0.,24.0,0.,24.0
1981-08-26 23:15:56.740 ,5,0,0.,24.0,0.,24.0
1981-08-26 23:16:20.740 ,4,1,0.,24.0,0.,24.0
1981-08-26 23:16:44.740 ,4,0,0.,24.0,0.,24.0
1981-08-26 23:17:08.740 ,3,1,0.,24.0,0.,24.0
1981-08-26 23:17:32.740 ,3,0,0.,24.0,0.,24.0
1981-08-26 23:17:56.740 ,2,1,0.,24.0,0.,24.0
1981-08-26 23:18:20.740 ,2,0,0.,24.0,0.,24.0
1981-08-26 23:18:44.740 ,1,1,0.,24.0,0.,24.0
1981-08-26 23:19:08.740 ,1,0,0.,24.0,0.,24.0
1981-08-26 23:20:20.740 ,0,0,0.,24.0,0.,24.0
1981-08-26 23:20:44.740 ,0,0,0.,24.0,0.,24.0
1981-08-26 23:21:08.740 ,1,1,0.,24.0,0.,24.0
1981-08-26 23:21:32.740 ,1,0,0.,24.0,0.,24.0
1981-08-26 23:21:56.740 ,2,1,0.,24.0,0.,24.0
1981-08-26 23:22:20.740 ,2,0,0.,24.0,0.,24.0
1981-08-26 23:22:44.740 ,3,1,0.,24.0,0.,24.0
1981-08-26 23:23:08.740 ,3,0,0.,24.0,0.,24.0
1981-08-26 23:23:32.740 ,4,1,0.,24.0,0.,24.0
1981-08-26 23:23:56.740 ,4,0,0.,24.0,0.,24.0
1981-08-26 23:24:20.740 ,5,1,0.,24.0,0.,24.0
1981-08-26 23:24:44.740 ,5,0,0.,24.0,0.,24.0
1981-08-26 23:25:08.740 ,6,1,0.,24.0,0.,24.0
1981-08-26 23:25:32.740 ,6,0,0.,24.0,0.,24.0
1981-08-26 23:25:56.740 ,7,1,0.,24.0,0.,24.0
1981-08-26 23:26:20.740 ,7,0,0.,24.0,0.,24.0
1981-08-26 23:26:44.740 ,7,1,0.,24.0,0.,24.0
1981-08-26 23:27:08.740 ,7,0,0.,24.0,0.,24.0
1981-08-26 23:27:32.740 ,6,1,0.,24.0,0.,24.0
1981-08-26 23:27:56.740 ,6,0,0.,24.0,0.,24.0
1981-08-26 23:28:20.740 ,5,1,0.,24.0,0.,24.0
1981-08-26 23:28:44.740 ,5,0,0.,24.0,0.,24.0
1981-08-26 23:29:08.740 ,4,1,0.,24.0,0.,24.0
1981-08-26 23:29:32.740 ,4,0,0.,24.0,0.,24.0
1981-08-26 23:29:56.740 ,3,1,0.,24.0,0.,24.0
1981-08-26 23:30:20.740 ,3,0,0.,24.0,0.,24.0
1981-08-26 23:30:44.740 ,2,1,0.,24.0,0.,24.0
1981-08-26 23:31:08.740 ,2,0,0.,24.0,0.,24.0
1981-08-26 23:31:32.740 ,1,1,0.,24.0,0.,24.0
1981-08-26 23:31:56.740 ,1,0,0.,24.0,0.,24.0
1981-08-26 23:32:20.740 ,0,1,0.,24.0,0.,24.0
1981-08-26 23:32:44.740 ,0,0,0.,24.0,0.,24.0
1981-08-26 23:33:08.740 ,0,1,0.,24.0,0.,24.0
1981-08-26 23:33:32.740 ,0,0,0.,24.0,0.,24.0
1981-08-26 23:33:56.740 ,1,1,0.,24.0,0.,24.0
1981-08-26 23:34:20.740 ,1,0,0.,24.0,0.,24.0
1981-08-26 23:34:44.740 ,2,1,0.,24.0,0.,24.0
1981-08-26 23:35:08.740 ,2,0,0.,24.0,0.,24.0
1981-08-26 23:35:32.740 ,3,1,0.,24.0,0.,24.0
1981-08-26 23:35:56.740 ,3,0,0.,24.0,0.,24.0
1981-08-26 23:36:20.740 ,4,1,0.,24.0,0.,24.0
1981-08-26 23:36:44.740 ,4,0,0.,24.0,0.,24.0
1981-08-26 23:37:08.740 ,5,1,0.,24.0,0.,24.0
1981-08-26 23:37:32.740 ,5,0,0.,24.0,0.,24.0
1981-08-26 23:37:56.740 ,6,1,0.,24.0,0.,24.0
1981-08-26 23:38:20.740 ,6,0,0.,24.0,0.,24.0
1981-08-26 23:38:44.740 ,7,1,0.,24.0,0.,24.0
1981-08-26 23:39:08.740 ,7,0,0.,24.0,0.,24.0
1981-08-26 23:39:32.740 ,7,1,0.,24.0,0.,24.0
1981-08-26 23:39:56.740 ,7,0,0.,24.0,0.,24.0
1981-08-26 23:40:20.740 ,6,1,0.,24.0,0.,24.0
1981-08-26 23:40:44.740 ,6,0,0.,24.0,0.,24.0
1981-08-26 23:41:08.740 ,5,1,0.,24.0,0.,24.0
1981-08-26 23:41:32.740 ,0,0,0.,24.0,0.,24.0
1981-08-26 23:42:20.140 ,0,0,,0,,0
1981-08-26 23:42:20.740 ,0,0,0.,24.0,0.,24.0
1981-08-26 23:42:44.740 ,3,1,0.,24.0,0.,24.0
1981-08-26 23:43:08.740 ,3,0,0.,24.0,0.,24.0
1981-08-26 23:43:32.740 ,2,1,0.,24.0,0.,24.0
1981-08-26 23:43:56.740 ,2,0,0.,24.0,0.,24.0
1981-08-26 23:44:20.740 ,1,1,0.,24.0,0.,24.0
1981-08-26 23:44:44.740 ,1,0,0.,24.0,0.,24.0
1981-08-26 23:45:08.740 ,0,1,0.,24.0,0.,24.0
1981-08-26 23:45:32.740 ,0,0,0.,24.0,0.,24.0
1981-08-26 23:45:56.740 ,0,1,0.,24.0,0.,24.0
1981-08-26 23:46:20.740 ,0,0,0.,24.0,0.,24.0
1981-08-26 23:46:44.740 ,1,1,0.,24.0,0.,24.0
1981-08-26 23:47:08.740 ,1,0,0.,24.0,0.,24.0
1981-08-26 23:47:32.740 ,2,1,0.,24.0,0.,24.0
1981-08-26 23:47:56.740 ,2,0,0.,24.0,0.,24.0
1981-08-26 23:48:20.740 ,3,1,0.,24.0,0.,24.0
1981-08-26 23:48:44.740 ,3,0,0.,24.0,0.,24.0
1981-08-26 23:49:08.740 ,4,1,0.,24.0,0.,24.0
1981-08-26 23:49:32.740 ,4,0,0.,24.0,0.,24.0
1981-08-26 23:49:56.740 ,5,1,0.,24.0,0.,24.0
1981-08-26 23:50:20.740 ,5,0,0.,24.0,0.,24.0
1981-08-26 23:50:44.740 ,6,1,0.,24.0,0.,24.0
1981-08-26 23:51:08.740 ,6,0,0.,24.0,0.,24.0
1981-08-26 23:51:32.740 ,7,1,0.,24.0,0.,24.0
1981-08-26 23:51:56.740 ,7,0,0.,24.0,0.,24.0
1981-08-26 23:54:07.540 ,0,0,0.,24.0,0.,24.0
1981-08-26 23:54:20.740 ,0,0,0.,24.0,0.,24.0
1981-08-26 23:54:44.740 ,4,1,0.,24.0,0.,24.0
1981-08-26 23:55:08.740 ,4,0,0.,24.0,0.,24.0
1981-08-26 23:55:32.740 ,3,1,0.,24.0,0.,24.0
1981-08-26 23:55:56.740 ,3,0,0.,24.0,0.,24.0
1981-08-26 23:56:20.740 ,2,1,0.,24.0,0.,24.0
1981-08-26 23:56:44.740 ,2,0,0.,24.0,0.,24.0
1981-08-26 23:57:08.740 ,1,1,0.,24.0,0.,24.0
1981-08-26 23:57:32.740 ,1,0,0.,24.0,0.,24.0
1981-08-26 23:57:56.740 ,0,1,0.,24.0,0.,24.0
1981-08-26 23:58:20.740 ,0,0,0.,24.0,0.,24.0
1981-08-26 23:58:44.740 ,0,1,0.,24.0,0.,24.0
1981-08-26 23:59:08.740 ,0,0,0.,24.0,0.,24.0
1981-08-26 23:59:32.740 ,1,1,0.,24.0,0.,24.0
1981-08-26 23:59:56.740 ,1,0,0.,24.0,0.,24.0
